• în România
  • Lista ţărilor
  • Pe 7 zile
  • Temperatura apei
  • Hartă satelitară
  • Meteo pe hartă
  • Widget-uri
  • user-avatar
    Intrare

    Meteo pe oră la Satif

    Astăzi, 23 Septembrie, Sâmbătă

    Timp Temperatura Precipitaţii Vânt Presiune Umiditate
    00:00 +22°C° 0 mm 1 m/s 676 mmHg 52%
    01:00 +22°C° 0,2 mm 1 m/s 675 mmHg 50%
    02:00 +21°C° 0,2 mm 2 m/s 675 mmHg 49%
    03:00 +21°C° 0,2 mm 3 m/s 675 mmHg 47%
    04:00 +20°C° 0,4 mm 3 m/s 675 mmHg 48%
    05:00 +20°C° 0,4 mm 3 m/s 675 mmHg 48%
    06:00 +20°C° 0,4 mm 3 m/s 675 mmHg 49%
    07:00 +21°C° 0,2 mm 3 m/s 676 mmHg 45%
    08:00 +22°C° 0,2 mm 3 m/s 676 mmHg 40%
    09:00 +24°C° 0,2 mm 2 m/s 677 mmHg 36%
    10:00 +25°C° 0 mm 3 m/s 677 mmHg 33%
    11:00 +27°C° 0 mm 3 m/s 677 mmHg 30%
    12:00 +28°C° 0 mm 4 m/s 677 mmHg 27%
    13:00 +28°C° 0 mm 4 m/s 677 mmHg 27%
    14:00 +28°C° 0 mm 5 m/s 676 mmHg 27%
    15:00 +29°C° 0 mm 5 m/s 676 mmHg 26%
    16:00 +28°C° 0 mm 5 m/s 676 mmHg 29%
    17:00 +27°C° 0 mm 4 m/s 676 mmHg 33%
    18:00 +26°C° 0 mm 4 m/s 675 mmHg 36%
    19:00 +25°C° 0 mm 3 m/s 675 mmHg 38%
    20:00 +24°C° 0 mm 3 m/s 676 mmHg 41%
    21:00 +22°C° 0 mm 3 m/s 676 mmHg 44%
    22:00 +23°C° 0 mm 2 m/s 676 mmHg 46%
    23:00 +23°C° 0 mm 2 m/s 675 mmHg 48%

    Mâine, 24 Septembrie, Duminică

    Timp Temperatura Precipitaţii Vânt Presiune Umiditate
    00:00 +21°C° 0 mm 2 m/s 675 mmHg 50%
    01:00 +21°C° 0 mm 2 m/s 675 mmHg 52%
    02:00 +20°C° 0 mm 2 m/s 675 mmHg 54%
    03:00 +20°C° 0 mm 2 m/s 675 mmHg 56%
    04:00 +19°C° 0 mm 2 m/s 675 mmHg 60%
    05:00 +19°C° 0 mm 2 m/s 675 mmHg 64%
    06:00 +19°C° 0 mm 1 m/s 675 mmHg 68%
    07:00 +21°C° 0 mm 1 m/s 675 mmHg 63%
    08:00 +21°C° 0 mm 2 m/s 676 mmHg 58%
    09:00 +23°C° 0 mm 2 m/s 677 mmHg 54%
    10:00 +24°C° 0 mm 2 m/s 677 mmHg 51%
    11:00 +25°C° 0 mm 2 m/s 677 mmHg 49%
    12:00 +25°C° 0 mm 3 m/s 677 mmHg 46%
    13:00 +25°C° 0 mm 3 m/s 677 mmHg 46%
    14:00 +26°C° 0 mm 3 m/s 676 mmHg 45%
    15:00 +26°C° 0 mm 3 m/s 676 mmHg 45%
    16:00 +25°C° 0 mm 3 m/s 676 mmHg 51%
    17:00 +24°C° 0 mm 3 m/s 676 mmHg 56%
    18:00 +22°C° 0 mm 3 m/s 676 mmHg 61%
    19:00 +21°C° 0 mm 3 m/s 676 mmHg 66%
    20:00 +20°C° 0 mm 2 m/s 676 mmHg 70%
    21:00 +20°C° 0 mm 2 m/s 676 mmHg 74%
    22:00 +20°C° 0 mm 1 m/s 676 mmHg 76%
    23:00 +20°C° 0 mm 1 m/s 675 mmHg 77%

    Poimâine, 25 Septembrie, Luni

    Timp Temperatura Precipitaţii Vânt Presiune Umiditate
    00:00 +20°C° 0 mm 1 m/s 675 mmHg 79%
    01:00 +19°C° 0 mm 1 m/s 675 mmHg 80%
    02:00 +19°C° 0 mm 1 m/s 674 mmHg 81%
    03:00 +19°C° 0 mm 1 m/s 674 mmHg 82%
    04:00 +19°C° 0 mm 1 m/s 674 mmHg 82%
    05:00 +16°C° 0 mm 0 m/s 674 mmHg 81%
    06:00 +16°C° 0 mm 0 m/s 674 mmHg 81%
    07:00 +18°C° 0 mm 0 m/s 675 mmHg 71%
    08:00 +21°C° 0 mm 1 m/s 675 mmHg 62%
    09:00 +23°C° 0 mm 1 m/s 676 mmHg 52%
    10:00 +24°C° 0 mm 1 m/s 676 mmHg 45%
    11:00 +25°C° 0 mm 1 m/s 676 mmHg 37%
    12:00 +26°C° 0 mm 2 m/s 676 mmHg 30%
    13:00 +26°C° 0 mm 2 m/s 676 mmHg 29%
    14:00 +26°C° 0 mm 2 m/s 675 mmHg 28%
    15:00 +27°C° 0 mm 2 m/s 675 mmHg 27%
    16:00 +26°C° 0 mm 2 m/s 675 mmHg 31%
    17:00 +25°C° 0 mm 3 m/s 675 mmHg 34%
    18:00 +24°C° 0 mm 3 m/s 675 mmHg 38%
    19:00 +23°C° 0 mm 2 m/s 675 mmHg 41%
    20:00 +21°C° 0 mm 2 m/s 675 mmHg 45%
    21:00 +21°C° 0 mm 1 m/s 675 mmHg 48%
    22:00 +21°C° 0 mm 1 m/s 675 mmHg 49%
    23:00 +20°C° 0 mm 1 m/s 674 mmHg 50%

    26 Septembrie, Marţi

    Timp Temperatura Precipitaţii Vânt Presiune Umiditate
    00:00 +20°C° 0 mm 1 m/s 674 mmHg 51%
    01:00 +19°C° 0 mm 1 m/s 674 mmHg 52%
    02:00 +19°C° 0 mm 1 m/s 673 mmHg 52%
    03:00 +19°C° 0 mm 1 m/s 673 mmHg 53%
    04:00 +19°C° 0 mm 1 m/s 673 mmHg 53%
    05:00 +18°C° 0 mm 1 m/s 673 mmHg 53%
    06:00 +18°C° 0 mm 1 m/s 673 mmHg 53%
    07:00 +20°C° 0 mm 1 m/s 674 mmHg 47%
    08:00 +22°C° 0 mm 1 m/s 674 mmHg 41%
    09:00 +24°C° 0 mm 2 m/s 675 mmHg 35%
    10:00 +25°C° 0 mm 2 m/s 675 mmHg 32%
    11:00 +26°C° 0 mm 2 m/s 675 mmHg 29%
    12:00 +27°C° 0 mm 3 m/s 675 mmHg 26%
    13:00 +27°C° 0 mm 3 m/s 675 mmHg 26%
    14:00 +27°C° 0 mm 3 m/s 675 mmHg 25%
    15:00 +27°C° 0 mm 3 m/s 674 mmHg 24%
    16:00 +26°C° 0 mm 2 m/s 674 mmHg 27%
    17:00 +25°C° 0 mm 2 m/s 674 mmHg 30%
    18:00 +24°C° 0 mm 2 m/s 674 mmHg 33%
    19:00 +23°C° 0 mm 2 m/s 674 mmHg 36%
    20:00 +22°C° 0 mm 1 m/s 674 mmHg 38%
    21:00 +21°C° 0 mm 1 m/s 675 mmHg 40%
    22:00 +21°C° 0 mm 1 m/s 674 mmHg 41%
    23:00 +20°C° 0 mm 1 m/s 674 mmHg 41%

    27 Septembrie, Miercuri

    Timp Temperatura Precipitaţii Vânt Presiune Umiditate
    00:00 +20°C° 0 mm 1 m/s 674 mmHg 41%
    01:00 +20°C° 0 mm 1 m/s 674 mmHg 42%
    02:00 +17°C° 0 mm 0 m/s 673 mmHg 43%
    03:00 +17°C° 0 mm 0 m/s 673 mmHg 44%
    04:00 +17°C° 0 mm 0 m/s 673 mmHg 45%
    05:00 +17°C° 0 mm 0 m/s 674 mmHg 46%
    06:00 +16°C° 0 mm 0 m/s 674 mmHg 46%
    07:00 +20°C° 0 mm 1 m/s 674 mmHg 42%
    08:00 +22°C° 0 mm 1 m/s 675 mmHg 38%
    09:00 +23°C° 0 mm 1 m/s 676 mmHg 35%
    10:00 +24°C° 0 mm 2 m/s 676 mmHg 33%
    11:00 +25°C° 0 mm 2 m/s 676 mmHg 32%
    12:00 +26°C° 0 mm 3 m/s 676 mmHg 31%
    13:00 +26°C° 0 mm 3 m/s 676 mmHg 33%
    14:00 +26°C° 0 mm 3 m/s 676 mmHg 35%
    15:00 +26°C° 0 mm 3 m/s 676 mmHg 37%
    16:00 +24°C° 0 mm 3 m/s 675 mmHg 43%
    17:00 +22°C° 0 mm 3 m/s 675 mmHg 49%
    18:00 +21°C° 0 mm 3 m/s 675 mmHg 55%
    19:00 +20°C° 0 mm 3 m/s 676 mmHg 60%
    20:00 +19°C° 0 mm 2 m/s 676 mmHg 64%
    21:00 +19°C° 0 mm 2 m/s 676 mmHg 69%
    22:00 +18°C° 0 mm 2 m/s 676 mmHg 72%
    23:00 +18°C° 0 mm 2 m/s 676 mmHg 74%

    28 Septembrie, Joi

    Timp Temperatura Precipitaţii Vânt Presiune Umiditate
    00:00 +17°C° 0 mm 2 m/s 675 mmHg 77%
    01:00 +17°C° 0 mm 2 m/s 675 mmHg 79%
    02:00 +17°C° 0 mm 2 m/s 675 mmHg 81%
    03:00 +16°C° 0 mm 2 m/s 675 mmHg 84%
    04:00 +16°C° 0 mm 2 m/s 675 mmHg 85%
    05:00 +16°C° 0 mm 2 m/s 675 mmHg 86%
    06:00 +15°C° 0 mm 1 m/s 675 mmHg 88%
    07:00 +16°C° 0 mm 2 m/s 676 mmHg 79%
    08:00 +18°C° 0 mm 2 m/s 676 mmHg 70%
    09:00 +19°C° 0 mm 2 m/s 677 mmHg 62%
    10:00 +20°C° 0 mm 2 m/s 677 mmHg 55%
    11:00 +21°C° 0 mm 2 m/s 677 mmHg 48%
    12:00 +23°C° 0 mm 2 m/s 677 mmHg 41%
    13:00 +22°C° 0 mm 3 m/s 677 mmHg 40%
    14:00 +24°C° 0 mm 3 m/s 677 mmHg 40%
    15:00 +24°C° 0 mm 3 m/s 677 mmHg 39%
    16:00 +22°C° 0 mm 3 m/s 677 mmHg 45%
    17:00 +21°C° 0 mm 3 m/s 677 mmHg 51%
    18:00 +19°C° 0 mm 3 m/s 677 mmHg 57%
    19:00 +19°C° 0 mm 3 m/s 677 mmHg 62%
    20:00 +18°C° 0 mm 2 m/s 677 mmHg 67%
    21:00 +17°C° 0 mm 2 m/s 677 mmHg 73%
    22:00 +17°C° 0 mm 2 m/s 677 mmHg 75%
    23:00 +16°C° 0 mm 1 m/s 677 mmHg 78%
    Arată mai mult